Flag for U.S.A. Weather past 2 weeks in Monterey, California, U.S.A.

Now
64 °F

Clear.


Feels Like: 64 °F
Forecast: 62 / 68 °F
Wind: 3 mph from South

Location: Monterey Peninsula Airport

Current Time: Aug 3, 2015 at 11:29:18 PM

Latest Report: Aug 3, 2015 at 10:54 PM


Visibility: 10 mi

Pressure: 30.03 "Hg

Humidity: 68%

Dew point: 53 °F

Location of MontereyLocation

Historic Weather in Monterey — Graph

°F

Monterey temperature yesterday

Maximum temperature yesterday: 70 °F (at 2:54 PM)
Minimum temperature yesterday: 62 °F (at 5:54 AM)
Average temperature yesterday: 66 °F

Past Weeks' High & Low Weather Summary

 TemperatureHumidityPressure
High81 °F (Jul 20, 9:54 AM)100% (Jul 29, 5:01 AM)30.16 "Hg (Jul 29, 5:01 AM)
Low53 °F (Jul 28, 5:54 AM)42% (Jul 20, 6:54 PM)29.90 "Hg (Jul 28, 7:00 AM)
Average65 °F74%30.02 "Hg
* Reported Jul 19 9:54 PM — Aug 3 9:54 PM, Monterey, Weather by CustomWeather, © 2015

Note: Actual official high and low records may vary slightly from our data, if they occured in-between our weather recording intervals... More about our weather records

Advertising

Monterey weather history for previous 24 hours

 ConditionsComfort  
Time TempWeatherWind HumidityBarometerVisibility
9:54 PM
Mon, Aug 3
65 °FClear.5 mph68%30.03 "Hg10 mi
8:54 PM65 °FSunny.5 mph66%30.01 "Hg10 mi
7:54 PM66 °FSunny.7 mph63%30.01 "Hg10 mi
6:54 PM69 °FSunny.8 mph55%30.00 "Hg10 mi
5:54 PM71 °FSunny.10 mph51%30.00 "Hg10 mi
4:54 PM71 °FSunny.13 mph51%30.01 "Hg10 mi
3:54 PM71 °FSunny.12 mph51%30.01 "Hg10 mi
2:54 PM71 °FSunny.12 mph51%30.01 "Hg10 mi
1:54 PM70 °FSunny.12 mph53%30.02 "Hg10 mi
12:54 PM70 °FSunny.13 mph53%30.03 "Hg10 mi
11:54 AM69 °FSunny.8 mph57%30.03 "Hg10 mi
10:54 AM67 °FSunny.10 mph61%30.03 "Hg10 mi
9:54 AM66 °FSunny.8 mph63%30.02 "Hg10 mi
8:54 AM65 °FPartly sunny.5 mph66%30.01 "Hg10 mi
7:54 AM64 °FOvercast.3 mph68%30.01 "Hg10 mi
6:54 AM64 °FOvercast.3 mph70%30.01 "Hg10 mi
5:54 AM64 °FOvercast.3 mph73%30.00 "Hg10 mi
4:54 AM64 °FOvercast.No wind75%30.00 "Hg10 mi
3:54 AM64 °FOvercast.5 mph75%29.99 "Hg10 mi
2:54 AM64 °FOvercast.5 mph75%29.99 "Hg10 mi
1:54 AM65 °FOvercast.6 mph73%29.99 "Hg10 mi
12:54 AM64 °FOvercast.8 mph75%29.99 "Hg10 mi
11:54 PM
Sun, Aug 2
63 °FPassing clouds.6 mph75%29.99 "Hg10 mi
Weather by CustomWeather, © 2015

See weather overviewHow to use our weather pages